Date,TemperatureHighF,TemperatureAvgF,TemperatureLowF,DewpointHighF,DewpointAvgF,DewpointLowF,HumidityHigh,HumidityAvg,HumidityLow,PressureMaxIn,PressureMinIn,WindSpeedMaxMPH,WindSpeedAvgMPH,GustSpeedMaxMPH,PrecipitationSumIn
2013-1-1,31.5,19.0,7.7,20.0,11.3,4.0,90,73,50,30.55,30.41,17,7,23,0.00
2013-1-2,30.8,26.1,21.6,23.0,17.7,13.0,90,71,48,30.60,30.41,19,12,29,0.00
2013-1-3,36.4,21.1,6.9,16.0,9.1,1.0,78,61,40,30.62,30.50,15,6,18,0.00
2013-1-4,46.6,24.6,12.7,15.0,9.4,4.0,71,54,27,30.52,30.32,11,5,14,0.00
2013-1-5,40.1,26.5,16.9,20.0,13.3,8.0,71,58,43,30.57,30.36,24,8,34,0.00
2013-1-6,53.9,24.4,3.9,20.0,12.1,0.0,85,65,17,30.54,30.19,10,1,14,0.00
2013-1-7,49.3,33.6,24.0,22.0,15.5,9.0,78,51,20,30.26,29.98,12,4,16,0.00
2013-1-8,49.1,40.5,29.3,24.0,22.2,17.0,64,49,35,30.37,29.96,25,10,41,0.00
2013-1-9,59.9,44.1,29.4,25.0,21.6,17.0,65,44,19,30.39,30.09,25,8,26,0.00
2013-1-10,53.6,38.7,26.6,37.0,25.6,18.0,96,63,30,30.10,29.59,14,5,18,0.00
2013-1-11,31.2,19.7,4.7,30.0,16.0,-2.0,97,85,72,30.18,29.50,21,9,29,0.00
2013-1-12,12.3,6.0,0.7,3.0,-0.7,-4.0,84,74,63,30.54,30.19,19,8,26,0.00
2013-1-13,15.2,6.4,0.0,5.0,0.7,-4.0,86,78,61,30.66,30.53,10,4,14,0.00
2013-1-14,15.8,1.9,-9.3,1.0,-5.5,-13.0,85,72,49,30.74,30.61,9,2,10,0.00
2013-1-15,29.7,16.2,-7.5,18.0,6.4,-12.0,82,66,58,30.62,30.43,20,9,27,0.00
2013-1-16,45.1,33.4,26.7,24.0,19.0,15.0,68,57,41,30.58,30.40,20,10,29,0.00
2013-1-17,49.8,32.6,21.1,20.0,15.8,12.0,69,52,28,30.70,30.38,9,4,12,0.00
2013-1-18,54.7,42.2,30.0,16.0,13.2,11.0,52,32,18,30.37,30.14,25,12,31,0.00
2013-1-19,53.7,39.1,26.6,22.0,14.3,8.0,77,40,16,30.37,30.16,17,6,21,0.00
2013-1-20,35.9,25.8,13.1,22.0,16.3,8.0,86,69,46,30.58,30.30,15,5,23,0.00
2013-1-21,44.1,22.9,7.7,18.0,12.5,4.0,87,68,34,30.55,30.32,10,2,12,0.00
2013-1-22,54.0,32.7,14.3,18.0,10.0,4.0,83,47,13,30.39,30.28,13,4,20,0.00
2013-1-23,51.0,33.8,21.8,20.0,12.8,7.0,79,46,20,30.39,30.27,15,5,21,0.00
2013-1-24,61.8,37.0,18.6,29.0,22.0,15.0,89,61,22,30.34,30.12,27,9,42,0.00
2013-1-25,58.8,38.1,20.0,32.0,23.7,16.0,86,60,31,30.34,30.17,18,4,23,0.00
2013-1-26,60.8,40.9,22.5,32.0,25.4,19.0,86,58,29,30.21,29.89,13,3,18,0.00
2013-1-27,58.6,43.0,32.3,43.0,34.2,28.0,95,75,35,29.89,29.74,9,3,14,0.02
2013-1-28,33.6,29.5,25.5,31.0,28.0,24.0,96,94,85,29.98,29.80,18,4,18,0.00
2013-1-29,33.1,23.6,13.9,24.0,16.0,6.0,95,74,43,30.29,29.96,20,8,31,0.00
2013-1-30,36.8,21.5,6.5,21.0,11.8,2.0,81,68,46,30.29,30.09,24,6,34,0.00
2013-1-31,28.3,24.5,14.3,21.0,14.8,5.0,78,67,55,30.48,30.22,18,7,25,0.00
2013-2-1,48.5,32.1,21.2,34.0,25.0,17.0,89,76,43,30.42,30.23,17,5,31,0.01
2013-2-2,50.1,35.3,24.8,28.0,20.4,13.0,88,59,23,30.48,30.40,26,7,31,0.00
2013-2-3,54.9,32.3,15.6,21.0,16.2,12.0,85,57,22,30.45,30.07,11,4,17,0.00
2013-2-4,53.3,36.0,20.3,20.0,16.4,13.0,76,49,23,30.19,29.98,22,6,23,0.00
2013-2-5,53.9,38.4,24.8,25.0,21.1,17.0,74,52,30,30.24,29.98,10,4,11,0.00
2013-2-6,53.1,40.5,33.9,29.0,23.7,16.0,75,53,24,30.25,29.93,17,4,22,0.00
2013-2-7,49.5,34.4,25.1,29.0,21.0,16.0,89,62,29,30.34,30.23,11,5,15,0.00
2013-2-8,53.4,35.2,19.9,24.0,19.1,14.0,78,54,27,30.22,29.90,15,4,17,0.00
2013-2-9,37.4,28.0,23.0,24.0,21.2,18.0,90,76,57,29.95,29.77,16,7,19,0.00
2013-2-10,32.4,27.0,17.5,25.0,18.1,9.0,91,70,50,30.32,29.81,34,15,50,0.00
2013-2-11,32.8,20.2,8.7,12.0,7.7,4.0,81,61,35,30.44,30.32,10,4,13,0.00
2013-2-12,40.7,25.3,10.9,15.0,9.6,3.0,73,54,30,30.38,30.28,23,9,31,0.00
2013-2-13,47.0,34.9,20.3,30.0,20.7,14.0,77,59,36,30.27,30.06,26,11,36,0.00
2013-2-14,33.8,28.4,18.6,27.0,17.9,9.0,88,66,39,30.57,30.20,28,10,35,0.00
2013-2-15,30.9,22.4,14.2,23.0,14.7,9.0,85,73,54,30.62,30.50,19,5,23,0.00
2013-2-16,53.5,37.9,20.0,22.0,19.1,13.0,82,50,27,30.50,30.09,30,8,31,0.00
2013-2-17,58.5,37.2,18.9,27.0,16.5,11.0,76,50,16,30.08,29.72,27,7,33,0.00
2013-2-18,34.5,29.3,15.9,24.0,18.3,11.0,79,64,47,30.36,29.98,21,10,29,0.00
2013-2-19,41.5,23.7,6.7,21.0,13.7,3.0,87,68,42,30.42,30.20,24,9,27,0.00
2013-2-20,25.3,20.2,15.2,19.0,13.2,6.0,90,74,60,30.22,30.04,24,12,30,0.00
2013-2-21,24.6,19.8,15.5,18.0,15.6,13.0,91,84,69,30.23,30.14,11,4,14,0.00
2013-2-22,37.8,25.5,15.0,24.0,16.9,13.0,92,72,39,30.27,30.10,12,4,20,0.01
2013-2-23,47.1,33.4,12.6,27.0,17.9,7.0,81,56,33,30.09,29.83,14,5,20,0.00
2013-2-24,35.1,30.7,28.0,29.0,25.8,22.0,94,82,73,30.33,29.94,21,9,22,0.00
2013-2-25,38.3,25.0,12.2,22.0,15.1,8.0,82,68,40,30.34,30.10,9,5,14,0.00
2013-2-26,40.4,28.1,14.4,29.0,19.9,11.0,87,73,40,30.36,30.08,22,10,32,0.00
2013-2-27,40.0,30.0,20.9,24.0,16.8,11.0,82,61,31,30.47,30.36,24,10,28,0.00
2013-2-28,44.8,30.8,16.3,20.0,13.1,10.0,78,52,26,30.50,30.39,24,8,27,0.00
2013-3-1,45.1,36.1,23.0,26.0,21.3,16.0,76,57,38,30.52,30.42,22,8,23,0.00
2013-3-2,60.2,45.8,33.1,31.0,28.2,25.0,77,54,26,30.42,30.09,19,8,26,0.00
2013-3-3,62.3,47.0,32.3,32.0,29.0,26.0,79,53,30,30.08,29.67,29,9,41,0.00
2013-3-4,37.3,29.7,19.7,26.0,10.5,5.0,74,46,29,30.49,29.82,31,16,46,0.00
2013-3-5,42.9,26.7,14.7,12.0,9.5,6.0,74,51,26,30.62,30.43,14,6,24,0.00
2013-3-6,59.1,36.1,18.0,27.0,19.3,12.0,81,56,23,30.42,30.02,21,10,27,0.00
2013-3-7,65.2,41.0,22.0,28.0,23.3,18.0,91,58,18,30.19,30.05,14,5,19,0.00
2013-3-8,47.6,36.4,24.6,31.0,26.9,21.0,86,70,51,30.21,29.89,11,3,18,0.00
2013-3-9,41.6,33.6,28.4,31.0,25.2,14.0,93,73,43,30.29,29.86,28,10,33,0.03
2013-3-10,45.9,31.7,19.7,20.0,11.3,3.0,78,48,20,30.41,30.22,26,9,33,0.00
2013-3-11,44.3,35.3,24.7,30.0,23.1,12.0,84,62,38,30.36,30.12,20,8,29,0.00
2013-3-12,45.1,34.3,25.7,26.0,19.7,15.0,75,57,35,30.51,30.36,18,8,23,0.00
2013-3-13,65.4,45.1,23.0,32.0,25.5,19.0,86,53,23,30.42,30.24,13,5,20,0.00
2013-3-14,70.6,54.1,39.4,31.0,28.0,23.0,67,41,17,30.34,30.07,11,5,19,0.00
2013-3-15,72.5,57.3,40.6,31.0,25.5,16.0,60,34,12,30.07,29.80,27,7,32,0.00
2013-3-16,56.1,46.0,30.8,33.0,29.7,24.0,77,54,39,30.04,29.84,26,10,31,0.00
2013-3-17,57.8,38.1,26.6,33.0,23.4,1.0,90,64,13,30.01,29.58,40,13,54,0.00
2013-3-18,43.8,32.6,19.6,22.0,14.7,10.0,78,51,26,30.18,30.01,24,6,28,0.00
2013-3-19,43.8,32.9,19.2,26.0,20.7,13.0,91,64,29,30.59,30.15,32,9,44,0.00
2013-3-20,57.0,34.8,12.4,34.0,18.9,9.0,89,59,19,30.59,29.89,19,6,23,0.00
2013-3-21,53.0,37.1,26.5,36.0,26.0,19.0,84,65,43,30.00,29.63,24,8,38,0.00
2013-3-22,43.4,34.4,25.2,26.0,18.7,8.0,89,58,24,30.17,29.94,19,8,26,0.00
2013-3-23,31.5,23.0,13.9,21.0,12.3,6.0,79,65,36,30.49,30.16,23,12,30,0.00
2013-3-24,29.0,19.2,9.5,14.0,5.4,2.0,81,58,31,30.61,30.41,31,9,39,0.00
2013-3-25,41.3,23.1,6.5,11.0,3.5,-3.0,81,49,16,30.66,30.50,14,5,21,0.00
2013-3-26,53.7,36.1,15.8,27.0,13.3,3.0,69,43,21,30.50,30.13,21,4,21,0.00
2013-3-27,59.8,44.9,30.1,40.0,25.9,18.0,80,50,31,30.24,30.11,10,3,17,0.01
2013-3-28,65.2,46.6,30.0,34.0,26.3,15.0,88,54,15,30.20,30.11,16,6,25,0.00
2013-3-29,68.8,51.0,31.8,34.0,28.2,22.0,71,45,20,30.20,30.03,18,6,26,0.00
2013-3-30,53.2,45.1,33.3,38.0,33.5,27.0,92,66,40,30.27,30.12,18,6,27,0.00
2013-3-31,65.5,44.1,23.2,36.0,25.8,18.0,95,58,18,30.30,30.05,23,7,31,0.01
2013-4-1,53.8,40.5,25.0,28.0,23.2,18.0,81,52,34,30.34,30.19,17,5,17,0.00
2013-4-2,57.6,43.3,25.8,31.0,26.7,20.0,81,55,28,30.30,30.17,19,5,19,0.00
2013-4-3,69.1,48.3,27.3,35.0,27.7,17.0,90,54,14,30.27,30.06,11,4,16,0.00
2013-4-4,68.8,53.0,36.2,36.0,32.7,30.0,77,50,24,30.23,29.97,17,5,28,0.00
2013-4-5,73.1,59.8,43.4,39.0,30.0,22.0,64,35,15,29.96,29.61,26,9,50,0.00
2013-4-6,64.9,53.0,38.2,37.0,29.2,23.0,80,45,21,29.91,29.80,19,7,22,0.00
2013-4-7,65.0,58.0,45.9,40.0,30.5,24.0,79,38,21,29.84,29.61,18,10,36,0.03
2013-4-8,61.4,44.5,18.7,39.0,30.4,17.0,95,62,30,30.04,29.61,33,11,46,0.16
2013-4-9,18.5,14.0,12.1,16.0,10.6,8.0,91,86,79,30.64,30.06,27,13,32,0.00
2013-4-10,27.1,19.4,12.3,19.0,13.3,7.0,90,77,65,30.61,30.26,20,9,23,0.00
2013-4-11,43.0,24.7,6.6,34.0,18.8,4.0,91,79,60,30.26,30.07,22,6,26,0.04
2013-4-12,43.3,36.2,29.4,36.0,31.3,27.0,94,83,67,30.20,30.11,13,4,17,0.10
2013-4-13,53.8,42.8,30.7,42.0,36.1,28.0,92,78,53,30.16,29.56,14,6,18,0.05
2013-4-14,48.9,38.6,30.6,40.0,26.0,13.0,91,64,27,29.95,29.54,24,13,39,0.00
2013-4-15,33.1,28.5,23.4,26.0,20.1,15.0,91,72,53,30.32,29.92,13,6,18,0.00
2013-4-16,30.1,27.6,25.9,29.0,25.9,24.0,94,93,90,30.36,30.26,21,10,28,0.00
2013-4-17,28.6,26.3,23.9,27.0,23.1,20.0,93,88,79,30.46,30.30,16,8,24,0.00
2013-4-18,33.0,25.4,14.6,21.0,17.0,11.0,89,71,52,30.42,30.37,27,12,36,0.00
2013-4-19,50.7,37.4,24.5,33.0,24.5,16.0,78,62,37,30.37,30.11,19,7,26,0.00
2013-4-20,59.2,47.2,36.4,42.0,35.2,31.0,86,66,37,30.11,29.98,13,4,17,0.03
2013-4-21,60.0,47.8,36.8,41.0,36.8,32.0,93,69,36,30.14,30.03,15,6,26,0.00
2013-4-22,42.9,31.8,22.6,40.0,26.0,16.0,93,79,67,30.59,29.98,33,14,39,0.01
2013-4-23,42.0,29.9,22.4,22.0,16.6,12.0,82,61,31,30.59,30.36,14,5,20,0.00
2013-4-24,50.7,37.1,23.5,27.0,21.5,16.0,84,58,26,30.40,30.32,25,8,35,0.00
2013-4-25,69.6,50.8,29.2,27.0,17.5,5.0,77,38,8,30.35,29.94,18,5,23,0.00
2013-4-26,71.5,54.4,35.9,27.0,21.9,15.0,58,32,12,30.22,30.04,11,4,15,0.00
2013-4-27,76.7,58.1,37.8,31.0,23.9,15.0,63,33,10,30.21,29.93,14,4,22,0.00
2013-4-28,74.9,60.4,42.9,36.0,30.4,24.0,53,35,16,29.93,29.80,20,8,29,0.00
2013-4-29,79.2,62.5,40.7,40.0,29.1,20.0,81,37,12,29.92,29.48,20,7,32,0.00
2013-4-30,69.3,45.4,32.6,39.0,32.4,25.0,95,64,19,30.17,29.54,24,6,31,0.58
2013-5-1,37.7,31.8,27.7,32.0,26.6,22.0,96,81,63,30.84,30.18,16,8,20,0.03
2013-5-2,47.6,36.0,26.4,28.0,22.2,9.0,83,60,23,30.94,30.59,12,7,16,0.11
2013-5-3,62.6,44.8,27.1,30.0,25.7,22.0,88,53,22,30.58,30.21,16,3,16,0.00
2013-5-4,57.2,45.9,33.1,27.0,22.0,17.0,74,43,21,30.37,30.26,16,5,20,0.00
2013-5-5,62.0,47.8,30.2,32.0,24.4,18.0,77,44,23,30.38,30.20,13,2,13,0.00
2013-5-6,70.2,55.3,38.3,38.0,29.3,24.0,65,41,20,30.22,29.97,16,6,27,0.00
2013-5-7,70.1,55.9,43.2,46.0,41.2,37.0,80,60,36,29.99,29.85,17,6,23,0.07
2013-5-8,71.6,56.2,42.2,48.0,40.1,35.0,94,60,27,30.09,29.95,27,7,35,0.00
2013-5-9,67.0,56.2,44.7,47.0,39.6,35.0,85,57,32,30.22,30.09,15,5,18,0.00
2013-5-10,72.4,58.4,43.5,46.0,39.4,22.0,93,57,15,30.31,30.13,26,8,30,0.00
2013-5-11,70.1,57.3,45.3,40.0,32.8,25.0,66,41,28,30.43,30.18,12,3,16,0.00
2013-5-12,82.6,64.1,44.3,43.0,37.8,31.0,81,45,16,30.18,29.97,16,6,21,0.00
2013-5-13,90.4,72.4,50.7,44.0,39.0,32.0,70,36,13,30.03,29.79,13,5,18,0.00
2013-5-14,91.3,75.0,54.6,47.0,38.6,26.0,59,31,10,29.80,29.66,14,5,49,0.00
2013-5-15,80.1,68.9,58.6,50.0,43.6,37.0,67,43,24,29.86,29.73,18,8,23,0.00
2013-5-16,79.1,66.6,56.3,54.0,48.3,43.0,74,54,29,29.84,29.66,16,3,23,0.03
2013-5-17,89.8,72.1,50.3,58.0,44.7,25.0,87,47,10,29.80,29.57,30,6,39,0.00
2013-5-18,79.0,65.6,55.3,59.0,51.3,33.0,92,65,20,29.74,29.57,17,5,26,0.45
2013-5-19,60.3,54.4,51.6,53.0,49.0,46.0,92,82,59,29.81,29.70,23,10,34,0.27
2013-5-20,52.8,50.8,48.0,48.0,43.7,42.0,84,77,66,30.00,29.80,34,17,47,0.07
2013-5-21,63.0,54.2,46.3,43.0,38.3,30.0,82,58,29,30.01,29.92,37,16,40,0.00
2013-5-22,64.3,52.3,41.3,45.0,42.0,38.0,89,70,45,30.17,29.99,20,6,23,0.00
2013-5-23,65.1,55.6,47.1,50.0,46.8,43.0,91,73,57,30.21,30.03,23,13,32,0.00
2013-5-24,82.1,68.4,57.0,57.0,48.8,32.0,91,57,16,30.03,29.85,20,8,30,0.00
2013-5-25,83.7,69.7,57.5,59.0,54.1,47.0,86,62,28,29.90,29.70,16,7,19,0.00
2013-5-26,81.4,68.6,56.8,59.0,53.8,41.0,84,61,31,29.85,29.69,19,6,28,0.00
2013-5-27,79.6,67.0,55.1,61.0,52.7,37.0,94,65,25,29.72,29.55,13,5,18,0.00
2013-5-28,79.3,61.5,49.0,53.0,49.2,44.0,85,67,35,29.79,29.51,36,9,40,0.14
2013-5-29,66.8,57.8,52.1,54.0,49.2,44.0,90,75,47,29.66,29.53,28,8,36,0.21
2013-5-30,69.0,57.9,47.5,45.0,40.3,33.0,80,55,27,29.78,29.55,27,12,41,0.00
2013-5-31,63.2,53.6,44.5,45.0,39.1,34.0,84,61,35,30.05,29.74,32,15,42,0.04
2013-6-1,66.3,55.3,47.5,44.0,39.7,34.0,84,60,31,30.25,30.05,26,13,35,0.01
2013-6-2,81.6,62.7,41.4,47.0,41.2,36.0,88,52,23,30.23,29.76,20,9,27,0.00
2013-6-3,86.3,67.6,50.1,52.0,43.3,15.0,83,50,7,29.85,29.61,22,11,32,0.00
2013-6-4,70.8,59.0,49.7,50.0,41.2,36.0,79,54,35,30.22,29.86,21,8,27,0.06
2013-6-5,68.2,55.5,44.5,44.0,38.1,35.0,78,55,32,30.27,30.11,14,6,19,0.00
2013-6-6,78.0,61.8,43.6,47.0,40.9,36.0,87,52,22,30.16,30.00,18,6,25,0.00
2013-6-7,83.2,64.1,47.5,55.0,47.6,42.0,84,59,25,30.09,29.66,15,4,37,0.08
2013-6-8,74.2,64.8,55.7,55.0,47.0,39.0,90,57,30,29.95,29.59,23,10,34,0.07
2013-6-9,84.3,67.4,49.2,52.0,46.1,42.0,83,51,24,29.99,29.79,13,4,18,0.00
2013-6-10,96.2,76.2,56.8,53.0,47.0,37.0,72,41,13,29.79,29.64,24,6,38,0.00
2013-6-11,93.3,78.0,62.6,63.0,57.3,50.0,79,52,24,29.74,29.56,14,6,23,0.00
2013-6-12,85.2,70.5,59.3,61.0,53.4,46.0,89,58,27,30.04,29.75,23,8,30,0.00
2013-6-13,83.4,66.8,52.0,55.0,51.8,48.0,87,61,36,30.10,29.79,18,11,27,0.00
2013-6-14,91.4,76.5,64.3,55.0,46.4,26.0,68,39,10,29.86,29.72,29,10,32,0.00
2013-6-15,78.4,68.7,57.6,56.0,50.8,46.0,80,55,37,29.99,29.79,23,7,31,0.00
2013-6-16,89.9,72.0,56.2,61.0,50.9,26.0,92,56,10,30.02,29.85,21,8,32,0.00
2013-6-17,80.9,68.0,55.0,55.0,50.5,46.0,91,58,32,30.12,29.94,22,9,42,0.18
2013-6-18,83.3,67.2,54.6,58.0,53.8,51.0,91,66,35,30.06,29.78,26,8,35,0.31
2013-6-19,90.6,73.2,56.0,63.0,57.8,52.0,92,62,27,29.91,29.53,28,12,36,0.00
2013-6-20,85.0,75.1,62.8,61.0,48.9,25.0,89,47,13,29.76,29.59,19,8,27,0.00
2013-6-21,81.4,72.1,62.0,66.0,58.7,43.0,87,65,29,29.81,29.60,37,8,42,0.00
2013-6-22,79.3,66.6,55.6,63.0,55.1,48.0,94,68,47,29.89,29.65,26,7,33,1.05
2013-6-23,77.5,65.9,52.7,60.0,52.5,48.0,87,64,39,29.97,29.77,17,8,28,0.00
2013-6-24,92.8,77.4,61.2,59.0,51.8,33.0,75,44,12,29.78,29.50,25,8,29,0.00
2013-6-25,88.3,76.9,64.9,65.0,50.2,41.0,87,45,20,29.79,29.60,23,6,32,0.00
2013-6-26,97.8,78.9,57.9,58.0,51.1,39.0,86,45,14,29.89,29.78,8,2,11,0.00
2013-6-27,93.7,78.7,65.3,57.0,53.0,48.0,72,44,21,30.08,29.83,16,4,18,0.00
2013-6-28,90.6,78.4,63.9,58.0,54.4,52.0,74,46,27,30.11,29.96,13,5,16,0.00
2013-6-29,87.5,75.2,61.2,56.0,53.4,49.0,79,49,30,30.08,29.93,21,4,22,0.00
2013-6-30,83.5,71.3,58.3,54.0,49.5,46.0,76,48,28,30.11,30.02,12,4,15,0.00
2013-7-1,79.9,68.4,60.5,58.0,54.0,51.0,84,62,39,30.19,30.11,16,6,23,0.00
2013-7-2,82.7,69.3,55.7,56.0,50.1,47.0,79,54,29,30.18,30.02,13,6,16,0.00
2013-7-3,89.3,73.1,56.7,52.0,46.9,43.0,66,43,20,30.04,29.76,12,6,16,0.00
2013-7-4,88.9,74.9,58.5,54.0,48.3,45.0,65,41,22,29.82,29.75,23,6,28,0.00
2013-7-5,87.4,74.1,66.7,63.0,56.2,51.0,74,55,34,29.79,29.62,19,4,36,0.01
2013-7-6,90.8,75.6,63.8,61.0,57.4,50.0,84,58,25,29.81,29.65,15,4,24,0.00
2013-7-7,88.5,75.6,64.0,63.0,58.2,53.0,87,57,30,29.91,29.78,14,5,15,0.10
2013-7-8,91.1,73.0,63.2,63.0,59.2,49.0,84,65,24,29.93,29.80,28,5,28,0.00
2013-7-9,93.6,76.0,61.0,60.0,57.1,47.0,88,57,20,30.04,29.90,33,5,53,0.00
2013-7-10,88.3,76.8,64.8,65.0,60.8,56.0,92,60,37,30.09,29.84,22,10,29,0.93
2013-7-11,96.1,78.6,62.4,64.0,59.5,52.0,90,58,23,29.94,29.65,21,8,26,0.00
2013-7-12,90.6,78.7,66.7,67.0,59.2,52.0,88,54,31,29.91,29.68,15,6,22,0.14
2013-7-13,90.5,75.9,64.4,67.0,61.9,54.0,94,66,29,29.94,29.82,14,3,16,0.00
2013-7-14,77.7,69.3,64.4,66.0,62.5,59.0,93,79,62,30.12,29.89,15,6,19,0.10
2013-7-15,84.7,72.8,64.3,67.0,59.1,46.0,97,67,28,30.13,29.95,21,8,27,0.00
2013-7-16,85.5,73.2,57.2,59.0,52.6,46.0,82,51,30,30.12,30.02,19,8,22,0.00
2013-7-17,90.9,76.1,60.5,61.0,56.7,49.0,92,56,24,30.14,29.94,20,10,29,0.00
2013-7-18,95.6,79.5,62.7,62.0,58.7,55.0,83,52,25,29.97,29.78,18,4,28,0.00
2013-7-19,86.1,76.2,67.9,62.0,57.2,53.0,75,54,34,30.01,29.89,15,7,21,0.00
2013-7-20,85.9,73.1,60.5,61.0,56.6,48.0,86,59,33,29.90,29.75,19,6,22,0.00
2013-7-21,90.2,74.0,58.6,63.0,56.9,48.0,88,58,32,29.91,29.68,18,8,25,0.00
2013-7-22,90.4,77.0,65.0,64.0,59.3,52.0,71,56,37,29.85,29.68,15,6,23,0.00
2013-7-23,87.9,74.5,63.1,61.0,57.2,55.0,76,57,36,30.00,29.78,18,7,26,0.00
2013-7-24,84.8,71.0,61.4,65.0,59.2,53.0,91,69,40,30.06,29.92,21,7,41,0.01
2013-7-25,83.3,71.0,60.0,58.0,54.8,49.0,88,60,30,30.11,29.96,12,5,19,0.00
2013-7-26,83.3,69.9,58.3,58.0,54.3,49.0,82,60,37,30.25,30.01,22,6,31,0.00
2013-7-27,66.9,60.9,54.5,55.0,53.1,50.0,84,75,63,30.10,30.01,17,7,23,0.00
2013-7-28,73.1,63.5,57.5,61.0,57.4,54.0,90,81,65,30.03,29.86,16,8,23,0.00
2013-7-29,77.0,66.9,58.1,64.0,60.5,57.0,96,81,55,30.05,29.89,14,5,18,0.04
2013-7-30,90.6,73.8,59.7,63.0,54.1,46.0,87,56,21,30.13,29.95,20,4,50,0.05
2013-7-31,86.5,70.1,57.8,62.0,57.8,49.0,92,69,28,30.19,30.02,17,3,24,0.01
2013-8-1,91.5,76.6,63.8,65.0,59.6,49.0,86,58,30,30.07,29.71,17,4,18,0.00
2013-8-2,83.2,72.8,58.0,64.0,59.4,54.0,87,64,45,29.95,29.77,18,7,25,0.00
2013-8-3,69.9,67.6,63.7,66.0,63.7,59.0,92,87,82,30.12,29.91,19,10,27,0.00
2013-8-4,90.7,73.2,59.2,62.0,56.6,48.0,95,62,26,30.05,29.86,25,6,32,0.00
2013-8-5,86.9,72.7,61.6,65.0,58.2,51.0,94,64,35,29.96,29.81,10,4,14,0.00
2013-8-6,86.6,71.4,60.7,61.0,56.4,51.0,87,62,32,29.95,29.76,27,6,54,0.00
2013-8-7,80.0,68.5,57.8,61.0,56.4,52.0,92,68,43,30.01,29.86,26,7,36,0.00
2013-8-8,81.3,68.0,56.0,62.0,58.5,55.0,97,74,44,30.06,29.95,17,4,25,0.04
2013-8-9,85.3,68.0,54.7,60.0,54.9,43.0,89,66,23,30.12,29.99,24,4,29,0.04
2013-8-10,86.6,70.1,55.6,58.0,54.4,43.0,93,62,24,30.14,29.95,15,3,23,0.04
2013-8-11,82.1,70.2,60.8,62.0,56.9,52.0,87,65,38,30.09,29.98,14,4,21,0.00
2013-8-12,83.1,69.0,55.0,60.0,55.7,49.0,93,66,41,30.10,29.99,20,3,25,0.00
2013-8-13,82.9,67.5,53.6,56.0,52.5,49.0,89,61,34,30.18,30.02,19,5,37,0.03
2013-8-14,86.8,69.5,54.2,57.0,51.8,44.0,90,59,23,30.17,29.93,9,3,14,0.00
2013-8-15,86.0,72.0,61.2,58.0,53.1,44.0,84,56,24,30.07,29.95,16,4,20,0.00
2013-8-16,85.6,69.5,58.0,62.0,58.5,55.0,97,71,38,30.06,29.96,12,6,17,0.03
2013-8-17,88.2,71.5,59.0,67.0,62.0,58.0,98,76,40,30.04,29.86,17,8,23,0.06
2013-8-18,90.0,73.0,62.0,68.0,62.2,49.0,98,73,34,29.95,29.82,20,6,34,0.12
2013-8-19,95.7,77.7,58.6,61.0,55.8,50.0,88,52,22,29.96,29.78,8,2,14,0.00
2013-8-20,98.8,80.6,62.7,57.0,51.7,38.0,77,41,13,29.81,29.71,20,4,28,0.00
2013-8-21,88.7,75.8,68.1,61.0,56.9,52.0,74,54,29,30.00,29.80,20,7,23,0.00
2013-8-22,85.4,73.5,62.4,63.0,59.4,54.0,87,64,35,30.09,29.96,13,5,14,0.00
2013-8-23,92.0,76.7,63.2,65.0,59.7,52.0,96,62,26,30.02,29.72,16,6,22,0.00
2013-8-24,92.6,76.4,60.4,59.0,54.6,49.0,81,51,23,29.87,29.79,12,3,21,0.00
2013-8-25,92.7,78.8,63.2,60.0,55.2,48.0,82,49,22,29.95,29.86,13,4,18,0.00
2013-8-26,91.8,78.4,62.5,61.0,56.6,54.0,79,50,28,29.95,29.85,18,5,22,0.00
2013-8-27,94.2,80.7,67.5,62.0,58.1,53.0,77,49,25,29.94,29.80,11,4,13,0.00
2013-8-28,95.8,80.4,66.5,61.0,56.0,47.0,78,47,20,29.92,29.79,13,4,17,0.00
2013-8-29,96.8,79.1,61.4,60.0,54.7,47.0,79,48,18,29.96,29.88,12,4,17,0.00
2013-8-30,94.3,75.2,64.9,66.0,61.4,57.0,84,64,33,29.98,29.79,32,4,44,0.15
2013-8-31,93.8,75.6,61.8,62.0,55.1,44.0,88,55,18,29.99,29.84,15,6,19,0.00
2013-9-1,85.3,70.6,55.3,50.0,47.8,43.0,81,48,26,30.07,29.95,10,4,15,0.00
2013-9-2,93.1,74.7,55.9,60.0,53.3,48.0,75,50,24,30.05,29.83,11,5,19,0.00
2013-9-3,94.7,80.5,66.2,63.0,58.0,52.0,80,50,24,29.91,29.80,16,4,18,0.02
2013-9-4,95.7,77.4,63.6,65.0,58.9,53.0,77,56,24,30.01,29.88,15,3,25,0.02
2013-9-5,93.2,77.6,64.5,64.0,61.0,58.0,86,60,32,30.03,29.88,11,4,13,0.00
2013-9-6,98.5,78.9,68.0,63.0,57.4,48.0,78,53,18,29.94,29.81,21,4,28,0.05
2013-9-7,94.2,78.6,65.0,62.0,59.4,54.0,85,55,28,29.95,29.80,11,3,14,0.00
2013-9-8,93.6,75.9,59.8,60.0,56.1,51.0,84,54,24,29.86,29.62,14,4,22,0.00
2013-9-9,80.6,69.3,61.6,62.0,58.3,52.0,91,71,39,29.94,29.71,15,5,24,0.20
2013-9-10,73.5,65.7,61.4,61.0,59.0,56.0,92,80,55,30.14,29.95,7,2,13,0.00
2013-9-11,68.8,63.9,61.1,63.0,59.3,58.0,91,85,71,30.23,30.14,9,2,11,0.04
2013-9-12,75.8,66.9,60.2,59.0,56.1,51.0,92,71,45,30.28,30.16,15,6,22,0.00
2013-9-13,63.1,59.4,56.0,61.0,57.4,55.0,97,93,80,30.17,29.93,22,10,25,0.45
2013-9-14,80.9,65.8,54.9,62.0,58.8,54.0,97,80,46,29.96,29.80,15,3,26,1.24
2013-9-15,65.8,61.0,55.4,60.0,55.0,51.0,91,81,65,30.27,29.95,15,7,21,0.00
2013-9-16,68.6,58.8,53.7,58.0,54.7,52.0,96,86,68,30.26,30.00,20,10,26,0.00
2013-9-17,88.6,69.6,52.9,58.0,53.0,45.0,96,63,23,30.00,29.69,12,4,16,0.00
2013-9-18,85.7,70.7,56.8,56.0,51.2,43.0,87,55,23,29.77,29.61,15,4,20,0.00
2013-9-19,69.3,59.4,50.5,51.0,40.4,33.0,74,53,27,30.19,29.78,15,6,21,0.00
2013-9-20,75.7,56.2,40.7,45.0,39.3,28.0,90,59,18,30.22,30.01,8,2,12,0.00
2013-9-21,89.3,66.5,44.6,50.0,43.3,35.0,90,51,16,30.02,29.69,14,2,22,0.00
2013-9-22,85.0,65.1,51.8,57.0,51.1,45.0,94,66,25,29.69,29.42,26,4,43,0.38
2013-9-23,62.9,55.3,47.5,55.0,51.8,46.0,96,88,64,30.03,29.48,23,8,37,0.81
2013-9-24,75.5,57.3,41.2,50.0,44.1,38.0,98,68,26,30.16,29.86,19,4,22,0.01
2013-9-25,78.6,63.0,45.8,53.0,47.5,42.0,86,59,31,29.86,29.41,23,10,26,0.00
2013-9-26,73.2,59.4,47.4,50.0,45.2,42.0,84,62,35,29.77,29.55,26,9,33,0.00
2013-9-27,53.2,45.3,41.7,44.0,41.1,38.0,93,85,70,30.08,29.75,17,6,21,0.22
2013-9-28,66.0,50.7,35.2,39.0,35.3,31.0,92,61,31,30.22,30.08,21,6,26,0.00
2013-9-29,78.2,59.9,39.8,42.0,34.4,29.0,84,46,17,30.13,29.80,17,6,23,0.00
2013-9-30,83.6,68.7,46.4,44.0,37.9,32.0,74,36,19,29.85,29.61,22,5,26,0.00
2013-10-1,72.5,57.5,43.2,44.0,39.3,31.0,89,56,26,30.03,29.80,16,5,24,0.00
2013-10-2,67.1,54.8,43.1,48.0,39.5,35.0,92,60,33,30.01,29.91,16,4,20,0.00
2013-10-3,53.8,48.4,43.1,45.0,41.8,36.0,94,78,61,29.96,29.86,16,6,19,0.07
2013-10-4,44.8,36.1,32.1,43.0,34.3,31.0,97,93,88,30.15,29.92,20,10,29,0.25
2013-10-7,80.0,66.2,49.5,41.0,37.8,32.0,69,39,18,29.99,29.90,8,3,10,0.00
2013-10-8,79.1,56.9,41.2,43.0,39.0,28.0,87,59,15,29.90,29.71,7,2,10,0.00
2013-10-9,60.4,50.6,41.6,45.0,40.9,36.0,87,70,56,30.05,29.82,13,5,18,0.00
2013-10-10,55.9,47.7,37.7,49.0,42.1,35.0,92,81,70,30.02,29.37,13,3,16,0.02
2013-10-11,53.5,47.8,43.4,50.0,40.8,34.0,96,78,55,30.18,29.27,30,14,45,0.23
2013-10-12,58.3,45.4,32.2,43.0,36.8,30.0,92,74,49,30.33,30.18,12,5,18,0.00
2013-10-13,65.1,52.3,40.3,46.0,41.3,37.0,89,68,48,30.29,29.98,20,10,36,0.07
2013-10-14,52.8,44.5,36.3,50.0,40.2,30.0,94,85,72,30.29,29.83,34,13,42,0.15
2013-10-15,41.2,38.1,35.6,31.0,29.3,28.0,80,71,62,30.46,30.29,29,12,36,0.00
2013-10-16,55.7,40.1,26.9,32.0,27.1,18.0,94,65,23,30.36,30.13,13,4,17,0.00
2013-10-17,44.4,39.1,34.4,33.0,29.3,26.0,82,69,55,30.29,30.18,13,6,17,0.00
2013-10-18,45.6,36.7,30.7,33.0,27.4,21.0,95,71,40,30.36,30.25,22,6,28,0.00
2013-10-19,61.2,44.4,30.3,34.0,29.2,26.0,89,60,28,30.24,29.99,18,4,23,0.00
2013-10-20,51.5,44.5,37.9,38.0,34.2,29.0,86,68,43,30.23,29.99,20,8,28,0.00
2013-10-21,57.2,44.2,32.8,38.0,33.9,30.0,91,70,40,30.25,30.14,22,5,23,0.00
2013-10-22,65.0,52.4,40.1,39.0,36.8,35.0,85,58,33,30.23,30.10,20,6,23,0.00
2013-10-23,63.5,47.4,36.1,41.0,35.8,32.0,91,69,31,30.36,30.15,18,6,21,0.00
2013-10-24,56.7,41.2,29.2,41.0,34.9,28.0,96,80,52,30.45,30.34,6,2,9,0.00
2013-10-25,69.9,46.1,30.2,40.0,34.0,29.0,96,69,23,30.38,30.16,9,4,15,0.00
2013-10-26,65.8,47.7,34.3,39.0,34.2,31.0,89,64,30,30.43,30.15,8,3,10,0.00
2013-10-27,70.8,48.9,30.6,38.0,30.2,22.0,90,57,16,30.15,29.88,23,4,31,0.00
2013-10-28,44.2,32.1,29.8,35.0,29.3,27.0,95,89,71,30.34,30.03,19,9,30,0.00
2013-10-29,36.3,33.3,31.0,34.0,31.7,30.0,96,93,89,30.32,30.16,10,4,12,0.24
2013-10-30,53.6,40.6,34.0,39.0,33.8,30.0,96,79,41,30.18,29.92,16,5,22,0.04
2013-10-31,54.4,45.2,34.2,40.0,31.6,27.0,88,62,39,29.96,29.82,28,12,37,0.01
2013-11-1,51.3,42.5,31.9,37.0,28.0,21.0,84,59,31,30.35,29.95,30,10,38,0.00
2013-11-2,63.3,42.5,22.7,31.0,25.6,19.0,88,57,24,30.37,29.85,21,5,25,0.00
2013-11-3,64.1,42.3,30.0,37.0,30.2,25.0,91,66,24,30.01,29.64,19,4,23,0.29
2013-11-4,45.6,36.4,29.2,34.0,27.8,21.0,92,73,39,30.20,30.00,10,3,14,0.00
2013-11-5,36.5,30.9,21.2,31.0,27.7,20.0,96,88,67,30.36,30.18,20,5,23,0.07
2013-11-6,48.9,33.4,19.1,31.0,25.0,17.0,94,74,40,30.59,30.35,16,4,23,0.03
2013-11-7,57.0,41.6,24.4,35.0,29.5,23.0,94,66,40,30.59,30.06,11,3,20,0.00
2013-11-8,62.7,47.2,32.2,34.0,29.3,25.0,83,54,27,30.14,29.84,26,6,40,0.00
2013-11-9,54.5,40.3,30.5,32.0,29.2,26.0,89,67,37,30.46,30.15,9,2,11,0.00
2013-11-10,63.9,40.8,26.3,36.0,30.6,24.0,92,71,31,30.45,30.26,7,2,12,0.00
2013-11-11,34.6,29.7,26.2,30.0,26.6,24.0,93,88,82,30.92,30.28,15,4,16,0.00
2013-11-12,46.1,30.3,20.3,41.0,27.3,19.0,97,89,70,30.92,30.53,7,2,8,0.00
2013-11-13,66.0,44.1,24.7,34.0,28.1,22.0,90,60,24,30.53,30.10,12,2,19,0.00
2013-11-14,56.7,44.6,34.1,38.0,34.2,31.0,91,69,41,30.18,29.86,15,4,18,0.00
2013-11-15,59.9,45.2,33.6,37.0,30.8,25.0,89,62,27,29.86,29.55,10,3,19,0.00
2013-11-16,51.2,42.9,35.2,30.0,25.0,20.0,68,50,35,29.57,29.41,24,8,33,0.00
2013-11-17,47.5,40.1,32.5,24.0,14.7,4.0,56,38,18,30.22,29.57,28,12,41,0.00
2013-11-18,60.4,39.8,25.1,28.0,22.3,17.0,79,53,26,30.28,30.12,13,2,21,0.00
2013-11-19,62.0,42.4,23.5,34.0,27.1,19.0,85,58,28,30.12,29.82,21,5,29,0.00
2013-11-20,61.1,44.7,19.6,34.0,29.0,12.0,86,57,31,30.33,29.79,38,7,43,0.00
2013-11-21,19.4,13.9,9.8,13.0,9.4,7.0,87,82,70,30.99,30.33,14,6,18,0.00
2013-11-22,17.5,7.2,-5.7,10.0,2.5,-10.0,89,81,69,31.10,30.98,9,3,12,0.00
2013-11-23,29.3,15.9,6.5,19.0,9.4,3.0,88,76,55,31.12,30.75,8,2,10,0.00
2013-11-24,38.8,24.5,12.3,27.0,18.3,9.0,89,78,54,30.75,30.29,13,3,20,0.00
2013-11-25,44.5,34.3,24.0,29.0,25.2,18.0,83,70,49,30.54,30.35,8,5,13,0.00
2013-11-26,41.7,30.0,22.3,25.0,22.9,20.0,90,76,49,30.62,30.47,9,3,14,0.00
2013-11-27,59.5,35.2,18.5,33.0,24.5,16.0,92,69,31,30.46,30.21,11,2,17,0.00
2013-11-28,45.9,31.2,21.3,29.0,24.0,19.0,90,76,48,30.46,30.34,14,6,17,0.00
2013-11-29,56.9,35.0,22.3,31.0,24.9,20.0,91,71,31,30.36,30.27,15,3,17,0.00
2013-11-30,55.1,36.5,22.8,31.0,24.7,20.0,87,67,31,30.36,30.25,15,3,23,0.00
2013-12-1,53.7,41.5,23.4,32.0,27.3,20.0,88,60,37,30.31,29.91,21,7,30,0.00
2013-12-2,58.8,51.6,42.1,31.0,29.2,27.0,63,43,31,29.91,29.56,32,12,45,0.00
2013-12-3,49.7,25.1,11.2,29.0,19.1,7.0,89,79,44,30.11,29.54,17,8,26,0.00
2013-12-4,10.9,4.1,-5.5,7.0,-1.8,-11.0,85,76,66,30.61,30.10,24,13,36,0.00
2013-12-5,6.4,-3.9,-12.9,-5.0,-10.1,-17.0,82,75,60,30.81,30.61,8,3,13,0.00
2013-12-6,4.2,-2.8,-7.3,-1.0,-7.1,-11.0,86,82,76,30.89,30.80,9,2,10,0.00
2013-12-7,10.8,1.7,-8.2,6.0,-2.7,-12.0,86,81,75,30.86,30.39,15,6,19,0.00
2013-12-8,12.5,5.3,-1.8,2.0,-2.2,-10.0,86,72,54,30.57,30.28,18,6,21,0.00
2013-12-9,22.4,8.7,-11.4,10.0,-0.9,-16.0,82,66,54,30.61,30.45,26,11,37,0.00
2013-12-10,33.8,26.0,14.7,20.0,14.2,5.0,84,62,50,30.61,30.26,28,10,35,0.00
2013-12-11,35.9,16.2,0.6,22.0,11.0,-3.0,90,81,53,30.70,30.57,8,1,13,0.00
2013-12-12,44.5,25.5,9.4,27.0,16.8,5.0,86,71,39,30.64,30.20,8,2,11,0.00
2013-12-13,43.3,30.9,18.3,29.0,22.2,14.0,87,72,50,30.39,30.11,15,5,17,0.00
2013-12-14,43.1,35.8,28.9,28.0,23.9,21.0,85,64,42,30.45,30.32,16,8,21,0.00
2013-12-15,51.6,41.8,32.6,26.0,24.0,22.0,66,50,35,30.33,30.15,19,10,29,0.00
2013-12-16,56.1,44.2,35.1,25.0,22.8,20.0,65,44,26,30.34,30.16,34,10,34,0.00
2013-12-17,58.2,43.1,27.5,26.0,22.0,20.0,77,47,24,30.44,30.06,20,5,23,0.00
2013-12-18,61.1,48.8,35.9,27.0,23.0,21.0,71,39,22,30.05,29.77,17,6,22,0.00
2013-12-19,36.7,24.5,10.4,27.0,19.0,4.0,91,80,67,30.26,29.79,20,8,32,0.00
2013-12-20,30.7,17.6,8.7,18.0,10.7,3.0,88,75,58,30.25,30.00,5,1,7,0.00
2013-12-21,32.5,21.3,10.7,27.0,16.7,8.0,88,82,72,30.23,29.92,12,4,18,0.00
2013-12-22,33.6,22.7,5.5,23.0,16.1,2.0,89,77,54,30.60,30.22,20,5,24,0.00
2013-12-23,19.6,9.6,-3.7,16.0,6.2,-7.0,89,86,79,30.70,30.45,5,1,7,0.00
2013-12-24,45.1,32.4,19.3,33.0,26.0,16.0,91,78,57,30.51,30.26,21,8,36,0.00
2013-12-25,40.4,28.3,20.0,20.0,16.5,14.0,83,63,35,30.66,30.41,14,5,17,0.00
2013-12-26,50.7,36.8,27.9,21.0,16.4,12.0,69,45,27,30.51,30.38,14,5,20,0.00
2013-12-27,58.8,40.3,24.0,26.0,22.4,18.0,80,52,27,30.42,30.16,13,5,16,0.00
2013-12-28,50.8,29.2,12.5,27.0,18.4,4.0,83,66,37,30.57,30.00,30,8,34,0.00
2013-12-29,38.0,23.1,6.1,17.0,10.4,2.0,82,61,40,30.60,30.23,11,3,16,0.00
2013-12-30,43.2,34.2,22.4,22.0,18.9,17.0,80,55,40,30.40,30.24,23,8,31,0.00
2013-12-31,51.9,43.3,24.4,31.0,24.7,17.0,73,49,36,30.23,30.05,25,9,39,0.00
2014-1-1,42.6,28.4,16.8,33.0,25.0,14.0,94,87,66,30.51,30.05,12,4,20,0.04
2014-1-2,35.6,22.9,9.8,25.0,17.6,7.0,90,80,64,30.57,30.25,8,3,10,0.00